This demonstration page uses our WeatherBlox Daily Observations layout. Learn more.

Left ArrowRight Arrow

Hourly Observations for July 4, 2022

Temp ( °F °C ) Dew Point ( °F °C ) Humidity (%) Winds ( mph kmh ) Pressure ( in mb ) Visibility ( mi km ) Precip ( " mm )
12:53 am 00:53 Clear 57 13.9 52 11.1 83 83 E 5 7 29.81 1010 10 16 0.00 0.00
1:53 am 01:53 Clear 54 12.2 51 10.6 90 90 Calm 29.82 1010 10 16 0.00 0.00
2:53 am 02:53 Clear 54 12.2 50 10 87 87 SE 5 7 29.91 1013 10 16 0.00 0.00
3:53 am 03:53 Clear 53 11.7 49 9.4 86 86 SE 7 11 29.88 1012 10 16 0.00 0.00
4:53 am 04:53 Clear 54 12.2 49 9.4 83 83 Calm 29.88 1012 10 16 0.00 0.00
5:53 am 05:53 Mostly Cloudy 52 11.1 49 9.4 89 89 SE 5 7 29.91 1013 10 16 0.00 0.00
6:53 am 06:53 Cloudy with Nearby Thunderstorms 57 13.9 52 11.1 83 83 Calm 29.93 1014 10 16 0.00 0.00
7:12 am 07:12 Mostly Cloudy 57 13.9 52 11.1 83 83 S 6 9 29.90 1012 10 16 0.00 0.00
7:53 am 07:53 Mostly Cloudy 62 16.7 52 11.1 70 70 E 5 7 29.93 1014 10 16 0.00 0.00
8:53 am 08:53 Mostly Cloudy 71 21.7 53 11.7 53 53 E 7 11 29.93 1014 10 16 0.00 0.00
9:53 am 09:53 Sunny 75 23.9 55 12.8 50 50 NE 8 13 29.92 1013 10 16 0.00 0.00
10:53 am 10:53 Mostly Cloudy 80 26.7 52 11.1 38 38 NW 8 13 29.92 1013 10 16 0.00 0.00
11:53 am 11:53 Mostly Cloudy 81 27.2 50 10 34 34 VRB 5 7 29.91 1013 10 16 0.00 0.00
12:53 pm 12:53 Sunny 83 28.3 49 9.4 31 31 SSW 13 20 29.91 1013 10 16 0.00 0.00
1:53 pm 13:53 Sunny 85 29.4 48 8.9 28 28 WSW 14 22 29.89 1012 10 16 0.00 0.00
2:53 pm 14:53 Mostly Sunny 86 30 47 8.3 26 26 WSW 15 24 29.88 1012 10 16 0.00 0.00
3:53 pm 15:53 Sunny 88 31.1 45 7.2 22 22 SW 15 24 29.85 1011 10 16 0.00 0.00
4:53 pm 16:53 Sunny 87 30.6 44 6.7 22 22 SW 10 17 29.83 1010 10 16 0.00 0.00
5:53 pm 17:53 Sunny 85 29.4 43 6.1 23 23 SSW 16 26 29.85 1011 10 16 0.00 0.00
6:53 pm 18:53 Sunny 85 29.4 40 4.4 20 20 WSW 14 22 29.83 1010 10 16 0.00 0.00
7:53 pm 19:53 Sunny 78 25.6 48 8.9 35 35 undefined N/A 29.83 1010 10 16 0.00 0.00
8:53 pm 20:53 Clear 68 20 48 8.9 49 49 SSW 5 7 29.85 1011 10 16 0.00 0.00
9:53 pm 21:53 Clear 66 18.9 49 9.4 54 54 Calm 29.86 1011 10 16 0.00 0.00
10:53 pm 22:53 Clear 60 15.6 50 10 70 70 Calm 29.88 1012 10 16 0.00 0.00
11:53 pm 23:53 Clear 59 15 49 9.4 69 69 Calm 29.88 1012 10 16 0.00 0.00

Powered by AerisWeather